Weather in Dammam

Saudi Arabia     26°21′16″N   49°58′35″E
temp.,
°C
wind,
m/s
gust,
m/s
humid.,
%
clouds,
%
prec.,
mm/h
press.,
hPa
HPBL,
m
6 march, sat
sat600:00+19nnw714490 0.0 1020528
03:00+18nnw814570 0.0 1019555
06:00+17nw611600 0.0 1021368
09:00+20nnw911490 0.0 1022962
12:00+23nnw911300 0.0 1020948
15:00+23nnw1012260 0.0 1018901
18:00+20nnw812290 0.0 1019647
21:00+19nnw611340 0.0 1019371
7 march, sun
sun700:00+18nw610370 0.0 1019229
03:00+17nw712280 0.0 1017255
06:00+15nw611310 0.0 1018208
09:00+20nnw810320 0.0 1019832
12:00+24nnw89250 0.0 10171002
15:00+24n78230 0.0 10141052
18:00+21n68290 0.0 1015339
21:00+18nnw35370 0.0 1016111
8 march, mon
mon800:00+17nw23390 0.0 101540
03:00+17nw33330 0.0 101437
06:00+17nw23320 0.0 101529
09:00+21nw22220 0.0 1016247
12:00+25w11160 0.0 1014630
15:00+26e43180 0.0 1011460
18:00+23e44250 0.0 1012160
21:00+21ese57370 0.0 1012151
9 march, tue
tue900:00+20se45470 0.0 101175
03:00+20se45540 0.0 101071
06:00+20s44380 0.0 101132
09:00+25ssw45200 0.0 1014276
12:00+30wnw67160 0.0 1013754
15:00+28n88240 0.0 1011652
18:00+23n68370 0.0 1013373
21:00+22n711360 0.0 1015257
10 march, wed
wed1000:00+21n47390 0.0 1015132
03:00+20nnw45430 0.0 101489
06:00+19nnw58456 0.0 1016124
09:00+24n68333 0.0 1018541
12:00+27n77200 0.0 10161020
15:00+27n910190 0.0 10151039
18:00+23n69280 0.0 1015470
21:00+21nnw34370 0.0 101790